FENGYUN 1C DEB, 31427

Orbit data source: Space-Track

FENGYUN 1C DEB, 31427 is space debris in SSO originally from a launch on Mon, 10 May 1999 UTC launched from the Taiyaun Space Center, China (TSC). Fengyun 1C debris stems from the Chinese weather satellite Fengyun-1C, which was intentionally destroyed by a Chinese anti-satellite missile in 2007. This event dramatically increased the amount of space debris, with thousands of trackable fragments posing hazards to satellites and human spaceflight. The Fengyun 1C debris cloud has become a focal point in discussions about space sustainability and the need for international regulations to prevent the creation of new debris.

Loading next visibility...
Identifier
31427, 1999-025BTP
Orbit
SSO
Country
Flag of CNCN / PRC
Related business
Manufacturer
Unknown
Mission
Spacecraft
Bus & Motor
Unknown
Mass
Unknown
Launch date (UTC)
1999-05-10 (27 years ago)
Launch vehicle
Unknown
Launch site
Taiyaun Space Center, China (TSC)
Object type
Payload
Rocket body
Debris
Shape & HBR
Unknown shape, 0.1 m
Radar Cross Section
Medium (>0.1 m² and <1 m²)

Expand to show TLE details & history
Last TLE update: 3 days ago

TLE from 3 days ago
0 FENGYUN 1C DEB
1 31427U 99025BTP 26166.30351734  .00008822  00000-0  17050-2 0  9994
2 31427  98.6770 289.1347 0030402 168.1261 192.0663 14.63353209995763
Epoch: 2026-06-15T07:17Z
TLE epoch observation values (Epoch: 2026-06-15T07:17:03.898Z)
Latitude
Longitude
-83.72338°
Altitude
706.34 km
Speed
7.491 km/s
True Right ascension
19h 16m 32s
True Declination
0° 00' 00"
Sunlit
Object was in full shadow at epoch
Visualization orbit readout
Latitude
Unknown
Longitude
Unknown
Altitude
Unknown
Speed
Unknown
Apparent Right ascension
Unknown
Apparent Declination
Unknown
Sunlit
N/A
Visualization observer readout
Local Sidereal Time
10:55:08
Azimuth
Unknown
Elevation
Unknown
Doppler factor
Unknown
Orbital elements
Apogee altitude
700.923 km
Perigee altitude
658.01 km
Semi-major axis
7,057.604 km
Eccentricity
0.00304
Inclination
98.677°
RAAN
289.1347°
Arg. of periapsis
168.1261°
True anomaly
191.99374°
Mean anomaly
192.0663°
Eccentric anomaly
192.02999°
Mean motion
3.66064 °/min
Orbital period
98.34 mins
BSTAR
0.001705
Loading maneuver chart data...
Computing Atmospheric mass density...

Documentation

Showing up to 5 results
|